Location: Bronnegerveen
(52.9548°N, 6.8388°E)
Time: 01:23:30
(UTC+00:00)

Cosmos 1844 Rocket - Pass Details

Date: 15 June 2025
Orbit: 822 x 844 km, 71.0° (Epoch: 07 July)

Event Time Altitude Azimuth Distance (km) Brightness Sun altitude
Exits shadow 00:36:20 - 242° (WSW) 2,916 5.1 -12.5°
Reaches altitude 10° 00:37:37 10° 247° (WSW) 2,463 4.8 -12.5°
Maximum altitude 00:42:53 38° 315° (NW) 1,268 3.9 -12.2°
Drops below altitude 10° 00:48:11 10° 23° (NNE) 2,478 6.7 -12.0°
Sets 00:50:49 0° 32° (NNE) 3,416 7.6 -11.9°
